This demonstration page uses our WeatherBlox Daily Observations layout. Learn more.

Left ArrowRight Arrow

44.89941, -97.11507

Hourly Observations for January 20, 2021

Temp ( °F °C ) Dew Point ( °F °C ) Humidity (%) Winds ( mph kmh ) Pressure ( in mb ) Visibility ( mi km ) Precip ( " mm )
12:53 am 00:53 Clear 12 -11.1 9 -12.8 87 87 S 12 19 30.12 1020 10 16 0.00 0.00
1:53 am 01:53 Clear 14 -10 10 -12.2 84 84 S 14 22 30.06 1018 10 16 0.00 0.00
2:53 am 02:53 Clear 15 -9.4 11 -11.7 84 84 S 15 24 30.02 1017 10 16 0.00 0.00
3:53 am 03:53 Clear 17 -8.3 14 -10 88 88 S 13 20 29.93 1013 10 16 0.00 0.00
4:53 am 04:53 Clear 22 -5.6 17 -8.3 82 82 S 15 24 29.86 1011 10 16 0.00 0.00
5:53 am 05:53 Clear 23 -5 18 -7.8 81 81 SSW 22 35 29.80 1009 10 16 0.00 0.00
6:53 am 06:53 Clear 24 -4.4 18 -7.8 77 77 S 18 30 29.76 1008 10 16 0.00 0.00
7:53 am 07:53 Clear 26 -3.3 19 -7.2 75 75 SSW 20 31 29.73 1007 10 16 0.00 0.00
8:53 am 08:53 Sunny 27 -2.8 20 -6.7 75 75 SW 16 26 29.72 1007 10 16 0.00 0.00
9:53 am 09:53 Sunny 29 -1.7 20 -6.7 69 69 WSW 18 30 29.72 1007 10 16 0.00 0.00
10:53 am 10:53 Sunny 32 0 22 -5.6 66 66 W 21 33 29.72 1006 10 16 0.00 0.00
11:53 am 11:53 Sunny 36 2.2 24 -4.4 62 62 W 17 28 29.71 1006 10 16 0.00 0.00
12:53 pm 12:53 Sunny 38 3.3 27 -2.8 65 65 W 20 31 29.69 1005 10 16 0.00 0.00
1:53 pm 13:53 Sunny 38 3.3 28 -2.2 68 68 W 18 30 29.69 1005 10 16 0.00 0.00
2:53 pm 14:53 Sunny 40 4.4 29 -1.7 65 65 W 20 31 29.67 1005 10 16 0.00 0.00
3:53 pm 15:53 Sunny 41 5 23 -5 49 49 WNW 21 33 29.71 1006 10 16 0.00 0.00
4:53 pm 16:53 Sunny 38 3.3 23 -5 55 55 WNW 15 24 29.73 1007 10 16 0.00 0.00
5:53 pm 17:53 Clear 37 2.8 22 -5.6 54 54 WNW 15 24 29.75 1008 10 16 0.00 0.00
6:53 pm 18:53 Clear 34 1.1 22 -5.6 61 61 WNW 9 15 29.78 1009 10 16 0.00 0.00
7:53 pm 19:53 Clear 33 0.6 21 -6.1 61 61 W 13 20 29.78 1008 10 16 0.00 0.00
8:53 pm 20:53 Clear 30 -1.1 21 -6.1 69 69 W 13 20 29.78 1008 10 16 0.00 0.00
9:53 pm 21:53 Clear 29 -1.7 20 -6.7 69 69 WSW 13 20 29.78 1009 10 16 0.00 0.00
10:53 pm 22:53 Clear 28 -2.2 19 -7.2 69 69 W 14 22 29.78 1009 10 16 0.00 0.00
11:53 pm 23:53 Clear 28 -2.2 20 -6.7 72 72 W 17 28 29.78 1008 10 16 0.00 0.00

Powered by AerisWeather